Regional Weather Roundup
Issued by NWS

Home | Current Version | Previous Version | Text Only | Print | Product List | Glossary On
Versions: 1 2 3 4 5 6 7 8 9 10 11 12 13 14 15 16 17 18 19 20 21 22 23 24 25 26 27 28 29 30 31 32 33 34 35 36 37 38 39 40 41 42 43 44 45 46 47 48 49 50
112
ASUS45 KCYS 252210
RWRWY

WYOMING REGIONAL WEATHER ROUNDUP
NATIONAL WEATHER SERVICE CHEYENNE WY
400 PM MDT SAT MAR 25 2017

NOTE:  "FAIR" INDICATES FEW OR NO CLOUDS BELOW 12,000 FEET
WITH NO SIGNIFICANT WEATHER AND/OR OBSTRUCTIONS TO VISIBILITY.

WYZ001-252300-
YELLOWSTONE NATIONAL PARK

CITY           SKY/WX    TMP DP  RH WIND       PRES   REMARKS
LK YELLOWSTONE   N/A     36  23  59 VRB7      29.95F WCI  30
W YELLOWSTONE  NOT AVBL

$$
WYZ002>013-054>058-071-098>099-252300-
NORTHERN WYOMING

CITY           SKY/WX    TMP DP  RH WIND       PRES   REMARKS
JACKSON        MOSUNNY   41  34  75 CALM      29.92F
CODY           FAIR      46  28  49 N12G17    29.92F
GREYBULL       CLOUDY    51  39  63 E5        29.87F
WORLAND        CLOUDY    54  37  52 N9        29.85F
SHERIDAN       CLOUDY    47  41  80 NW10      29.92F
BUFFALO        FAIR      52  36  54 N14G25    29.91F
GILLETTE       PTSUNNY   58  33  39 NE15      29.86F
HULETT         FAIR      59  32  36 N10G18    29.87S
NEWCASTLE      FAIR      63  25  23 SW8       29.82F

$$
WYZ014>020-022>026-101>103-252300-
CENTRAL WYOMING

CITY           SKY/WX    TMP DP  RH WIND       PRES   REMARKS
BIG PINEY      LGT RAIN  36  35  96 N7        29.93S FOG     WCI  30
PINEDALE       RAIN      34  34 100 CALM      29.93F
DUBOIS         LGT RAIN  36  32  87 NW15      29.90S WCI  26
LANDER         CLOUDY    49  34  56 SE10      29.85F
RIVERTON       CLOUDY    49  36  61 N3        29.87F
CASPER         FAIR      55  29  36 N5        29.85F
DOUGLAS        FAIR      59  28  30 CALM      29.86F

$$
WYZ021-027>030-104>119-252300-
SOUTHERN WYOMING

CITY           SKY/WX    TMP DP  RH WIND       PRES   REMARKS
EVANSTON       LGT RAIN  38  34  85 W14       29.93S WCI  30
KEMMERER         N/A     36  32  87 W3        29.94S
FORT BRIDGER   LGT RAIN  40  40  99 W8        29.95F
ROCK SPRINGS   NOT AVBL
DIXON            N/A     57  24  28 NW7       29.89F
RAWLINS        CLOUDY    52  25  35 SW15      29.90F
SARATOGA       CLOUDY    54  19  26 W8        29.90F
LARAMIE        FAIR      56  11  16 CALM      29.89F
CHEYENNE       FAIR      59  16  18 S17       29.89F
TORRINGTON     FAIR      65  22  19 CALM      29.82F
PINE BLUFFS    FAIR      61  25  25 S6        29.88F

$$




USA.gov is the U.S. government's official web portal to all federal, state and local government web resources and services.